GW6471 Weather Reports


Display with metric or nautical units.
time (UTC)temp
F
wind
direction
speed
MPH
gust
MPH
rain 1hr
in
rain 24hr
in
rain mn
in
humidity
%
barometer
mb
20260502233258 50 91 0.0 0.0 0.00 0.00 0.00 40 1015.8
20260502232754 50 357 0.0 1.0 0.00 0.00 0.00 35 1016.0
20260502232251 51 173 0.0 1.0 0.00 0.00 0.00 34 1016.0
20260502231748 51 166 0.0 0.0 0.00 0.00 0.00 34 1016.0
20260502231246 51 235 0.0 0.0 0.00 0.00 0.00 34 1016.0
20260502230744 50 160 0.0 0.0 0.00 0.00 0.00 34 1016.1
20260502230242 50 70 0.0 0.0 0.00 0.00 0.00 37 1016.0
20260502225738 50 70 0.0 1.0 0.00 0.00 0.00 36 1016.1
20260502225235 51 60 1.0 1.0 0.00 0.00 0.00 36 1016.2
20260502224731 51 104 0.0 1.0 0.00 0.00 0.00 35 1016.2
20260502224228 52 159 0.0 1.0 0.00 0.00 0.00 37 1016.2
20260502223726 53 187 1.0 1.0 0.00 0.00 0.00 33 1016.3
20260502223224 52 127 0.0 0.0 0.00 0.00 0.00 35 1016.3
20260502222721 51 222 0.0 0.0 0.00 0.00 0.00 37 1016.6
20260502222218 52 213 2.0 2.0 0.00 0.00 0.00 32 1016.4
20260502221714 51 251 1.0 1.0 0.00 0.00 0.00 33 1016.4
20260502221210 51 282 2.0 2.0 0.00 0.00 0.00 32 1016.6
20260502220706 52 209 2.0 3.0 0.00 0.00 0.00 32 1016.7
20260502220203 52 165 0.0 0.0 0.00 0.00 0.00 34 1016.6
20260502215700 52 206 1.0 1.0 0.00 0.00 0.00 31 1016.6
20260502215157 52 67 1.0 2.0 0.00 0.00 0.00 34 1016.7
20260502214654 52 289 1.0 2.0 0.00 0.00 0.00 31 1016.8
20260502214151 52 188 0.0 1.0 0.00 0.00 0.00 33 1016.7
20260502213649 51 77 1.0 1.0 0.00 0.00 0.00 33 1016.6
20260502213146 51 88 0.0 0.0 0.00 0.00 0.00 34 1016.9
20260502212644 51 100 2.0 2.0 0.00 0.00 0.00 35 1016.9
20260502212142 51 117 3.0 3.0 0.00 0.00 0.00 32 1016.9
20260502211637 52 83 0.0 1.0 0.00 0.00 0.00 33 1017.0
20260502211135 51 190 0.0 1.0 0.00 0.00 0.00 32 1017.1
20260502210632 51 107 0.0 1.0 0.00 0.00 0.00 33 1017.0
20260502210129 51 107 0.0 0.0 0.00 0.00 0.00 34 1017.2
20260502205626 51 63 2.0 2.0 0.00 0.00 0.00 31 1017.3
20260502205123 51 104 1.0 1.0 0.00 0.00 0.00 33 1017.5
20260502204620 51 221 2.0 2.0 0.00 0.00 0.00 30 1017.4
20260502204117 52 187 0.0 1.0 0.00 0.00 0.00 31 1017.2
20260502203614 51 218 1.0 1.0 0.00 0.00 0.00 30 1017.2
20260502203112 51 60 1.0 1.0 0.00 0.00 0.00 37 1017.6
20260502202607 51 104 2.0 2.0 0.00 0.00 0.00 35 1017.7
20260502202105 51 97 0.0 0.0 0.00 0.00 0.00 35 1017.7
20260502201601 52 68 3.0 3.0 0.00 0.00 0.00 34 1017.8
20260502201058 52 59 2.0 2.0 0.00 0.00 0.00 36 1017.8
20260502200554 51 72 0.0 1.0 0.00 0.00 0.00 33 1017.9
20260502200052 51 156 0.0 0.0 0.00 0.00 0.00 30 1017.8
20260502195549 51 94 1.0 1.0 0.00 0.00 0.00 34 1017.8
20260502195045 52 253 1.0 1.0 0.00 0.00 0.00 34 1018.0
20260502194542 50 98 0.0 0.0 0.00 0.00 0.00 31 1018.1
20260502194038 52 207 4.0 7.0 0.00 0.00 0.00 28 1018.1
20260502193536 52 145 0.0 1.0 0.00 0.00 0.00 30 1018.3
20260502193032 52 199 1.0 1.0 0.00 0.00 0.00 30 1018.2
20260502192528 51 285 1.0 2.0 0.00 0.00 0.00 28 1018.4
20260502192026 51 222 1.0 1.0 0.00 0.00 0.00 31 1018.5
20260502191522 51 44 4.0 4.0 0.00 0.00 0.00 33 1018.2
20260502191020 52 243 3.0 4.0 0.00 0.00 0.00 28 1018.3
20260502190517 52 49 2.0 2.0 0.00 0.00 0.00 33 1018.5
20260502190014 52 288 0.0 1.0 0.00 0.00 0.00 32 1018.3
20260502185509 51 171 0.0 1.0 0.00 0.00 0.00 30 1018.4
20260502185006 50 228 2.0 2.0 0.00 0.00 0.00 33 1018.6
20260502184501 51 63 4.0 6.0 0.00 0.00 0.00 31 1018.5
20260502183958 51 62 2.0 3.0 0.00 0.00 0.00 30 1018.8
20260502183454 52 241 3.0 4.0 0.00 0.00 0.00 28 1018.7
20260502182949 50 77 2.0 3.0 0.00 0.00 0.00 30 1018.7
20260502182445 50 295 1.0 1.0 0.00 0.00 0.00 31 1018.7
20260502181942 51 332 1.0 3.0 0.00 0.00 0.00 33 1018.6
20260502181440 50 216 2.0 3.0 0.00 0.00 0.00 31 1018.6
20260502180938 49 45 2.0 2.0 0.00 0.00 0.00 33 1018.8
20260502180435 51 45 2.0 3.0 0.00 0.00 0.00 29 1018.8
20260502170354 50 231 2.0 3.0 0.00 0.00 0.00 31 1019.0
20260502164341 49 285 2.0 3.0 0.00 0.00 0.00 30 1019.2
20260502163837 50 61 2.0 2.0 0.00 0.00 0.00 31 1019.2
20260502163333 49 127 1.0 1.0 0.00 0.00 0.00 32 1019.2
20260502162831 48 36 1.0 2.0 0.00 0.00 0.00 33 1019.2
20260502162328 49 77 0.0 1.0 0.00 0.00 0.00 35 1019.3
20260502161825 48 63 1.0 2.0 0.00 0.00 0.00 32 1019.3
20260502161321 48 128 0.0 0.0 0.00 0.00 0.00 33 1019.5
20260502160819 47 155 0.0 0.0 0.00 0.00 0.00 33 1019.7
20260502160318 47 86 2.0 3.0 0.00 0.00 0.00 32 1019.7
20260502152247 45 225 2.0 2.0 0.00 0.00 0.00 34 1019.8
20260502151744 45 197 3.0 3.0 0.00 0.00 0.00 33 1019.8
20260502151241 44 174 3.0 3.0 0.00 0.00 0.00 35 1019.8
20260502150739 44 203 2.0 2.0 0.00 0.00 0.00 35 1019.7
20260502150235 45 207 4.0 7.0 0.00 0.00 0.00 34 1019.9
20260502130624 37 176 0.0 0.0 0.00 0.00 0.00 70 1020.5
20260502130122 36 176 0.0 0.0 0.00 0.00 0.00 72 1020.5
20260502123607 31 181 0.0 0.0 0.00 0.00 0.00 88 1020.5
20260502123103 30 180 0.0 0.0 0.00 0.00 0.00 91 1020.4
20260502122600 30 181 0.0 0.0 0.00 0.00 0.00 93 1020.4
20260502122057 29 181 0.0 0.0 0.00 0.00 0.00 94 1020.4
20260502121555 28 181 0.0 0.0 0.00 0.00 0.00 94 1020.3
20260502121052 28 181 0.0 0.0 0.00 0.00 0.00 94 1020.2
20260502120548 28 181 0.0 0.0 0.00 0.00 0.00 94 1020.4
20260502115544 27 181 0.0 0.0 0.00 0.00 0.00 94 1020.3
20260502115039 27 181 0.0 0.0 0.00 0.00 0.00 94 1020.3
20260502114536 27 181 0.0 0.0 0.00 0.00 0.00 95 1020.4
20260502114032 26 181 0.0 0.0 0.00 0.00 0.00 95 1020.3
20260502113530 26 181 0.0 0.0 0.00 0.00 0.00 94 1020.3
20260502113029 26 181 0.0 0.0 0.00 0.00 0.00 94 1020.4
20260502112526 26 181 0.0 0.0 0.00 0.00 0.00 94 1020.2
20260502112023 26 181 0.0 0.0 0.00 0.00 0.00 94 1020.2
20260502111521 26 181 0.0 0.0 0.00 0.00 0.00 94 1020.1
20260502111018 25 181 0.0 0.0 0.00 0.00 0.00 94 1020.0
20260502110515 25 181 0.0 0.0 0.00 0.00 0.00 94 1020.1
20260502110013 25 181 0.0 0.0 0.00 0.00 0.00 94 1019.9
20260502105510 25 181 0.0 0.0 0.00 0.00 0.00 94 1019.9
20260502105008 25 181 0.0 0.0 0.00 0.00 0.00 94 1019.8
20260502104504 25 181 0.0 0.0 0.00 0.00 0.00 94 1020.0
20260502104002 25 181 0.0 0.0 0.00 0.00 0.00 95 1020.1
20260502103459 25 181 0.0 0.0 0.00 0.00 0.00 95 1020.1
20260502102956 26 181 0.0 0.0 0.00 0.00 0.00 95 1020.0
20260502102453 26 190 0.0 0.0 0.00 0.00 0.00 95 1019.9
20260502101950 26 189 0.0 0.0 0.00 0.00 0.00 95 1020.0
20260502101448 26 189 0.0 0.0 0.00 0.00 0.00 95 1020.1
20260502100946 26 189 0.0 0.0 0.00 0.00 0.00 95 1019.9
20260502100445 26 189 0.0 0.0 0.00 0.00 0.00 95 1020.0
20260502091419 26 190 0.0 0.0 0.00 0.00 0.00 95 1019.6
20260502090916 26 190 0.0 0.0 0.00 0.00 0.00 95 1019.6
20260502090414 27 190 0.0 0.0 0.00 0.00 0.00 95 1019.6
20260502071308 28 189 0.0 0.0 0.00 0.00 0.00 95 1019.5
20260502070807 28 189 0.0 0.0 0.00 0.00 0.00 95 1019.5
20260502070303 28 189 0.0 0.0 0.00 0.00 0.00 95 1019.3
20260502065802 28 189 0.0 0.0 0.00 0.00 0.00 95 1019.6
20260502065300 28 189 0.0 0.0 0.00 0.00 0.00 95 1019.7
20260502064758 28 189 0.0 0.0 0.00 0.00 0.00 95 1019.7
20260502064255 28 189 0.0 0.0 0.00 0.00 0.00 95 1019.5
20260502063753 29 189 0.0 0.0 0.00 0.00 0.00 95 1019.6
20260502063251 29 189 0.0 0.0 0.00 0.00 0.00 95 1019.6
20260502062747 29 189 0.0 0.0 0.00 0.00 0.00 95 1019.6
20260502062245 29 189 0.0 0.0 0.00 0.00 0.00 95 1019.6
20260502061743 29 189 0.0 0.0 0.00 0.00 0.00 95 1019.7
20260502061241 29 189 0.0 0.0 0.00 0.00 0.00 95 1019.6
20260502060736 29 189 0.0 0.0 0.00 0.00 0.00 95 1019.6
20260502060232 29 189 0.0 0.0 0.00 0.00 0.00 94 1019.6
20260502055730 29 189 0.0 0.0 0.00 0.00 0.00 94 1019.5
20260502055227 29 189 0.0 0.0 0.00 0.00 0.00 94 1019.5
20260502054727 29 189 0.0 0.0 0.00 0.00 0.00 94 1019.5
20260502054224 29 189 0.0 0.0 0.00 0.00 0.00 94 1019.7
20260502053721 29 189 0.0 0.0 0.00 0.00 0.00 94 1019.6
20260502053218 29 189 0.0 0.0 0.00 0.00 0.00 94 1019.6
20260502052716 29 189 0.0 0.0 0.00 0.00 0.00 94 1019.7
20260502052214 29 189 0.0 0.0 0.00 0.00 0.00 94 1019.6
20260502051712 30 189 0.0 0.0 0.00 0.00 0.00 94 1019.6
20260502051210 30 189 0.0 0.0 0.00 0.00 0.00 94 1019.6
20260502050706 30 189 0.0 0.0 0.00 0.00 0.00 94 1019.8
20260502050202 30 189 0.0 0.0 0.00 0.00 0.00 93 1019.6
20260502045659 30 189 0.0 0.0 0.00 0.00 0.00 93 1019.6
20260502045156 30 189 0.0 0.0 0.00 0.00 0.00 93 1019.6
20260502044653 30 189 0.0 0.0 0.00 0.00 0.00 93 1019.5
20260502044149 30 189 0.0 0.0 0.00 0.00 0.00 93 1019.6
20260502043647 30 189 0.0 0.0 0.00 0.00 0.00 93 1019.7
20260502043144 30 189 0.0 0.0 0.00 0.00 0.00 92 1019.6
20260502042644 30 189 0.0 0.0 0.00 0.00 0.00 92 1019.7
20260502042141 30 189 0.0 0.0 0.00 0.00 0.00 91 1019.5
20260502041638 31 189 0.0 0.0 0.00 0.00 0.00 91 1019.5
20260502041135 31 189 0.0 0.0 0.00 0.00 0.00 91 1019.6
20260502040632 31 189 0.0 0.0 0.00 0.00 0.00 91 1019.6
20260502040130 31 189 0.0 0.0 0.00 0.00 0.00 90 1019.5
20260502035625 31 189 0.0 0.0 0.00 0.00 0.00 90 1019.5
20260502035122 32 189 0.0 0.0 0.00 0.00 0.00 89 1019.6
20260502034620 32 189 0.0 0.0 0.00 0.00 0.00 89 1019.6
20260502034119 32 189 0.0 0.0 0.00 0.00 0.00 89 1019.5
20260502033616 32 189 0.0 0.0 0.00 0.00 0.00 88 1019.6
20260502033114 32 189 0.0 0.0 0.00 0.00 0.00 88 1019.7
20260502032614 32 189 0.0 0.0 0.00 0.00 0.00 87 1019.7
20260502032111 33 190 0.0 0.0 0.00 0.00 0.00 87 1019.5
20260502031609 33 189 0.0 0.0 0.00 0.00 0.00 87 1019.7
20260502031107 33 189 0.0 0.0 0.00 0.00 0.00 87 1020.0
20260502030606 33 189 0.0 0.0 0.00 0.00 0.00 86 1019.8
20260502025600 33 189 0.0 0.0 0.00 0.00 0.00 85 1019.9
20260502025058 34 189 0.0 0.0 0.00 0.00 0.00 84 1019.9
20260502024555 34 189 0.0 0.0 0.00 0.00 0.00 84 1019.9
20260502024054 34 189 0.0 0.0 0.00 0.00 0.00 83 1019.9
20260502023551 35 189 0.0 0.0 0.00 0.00 0.00 82 1019.7
20260502023048 35 189 0.0 0.0 0.00 0.00 0.00 81 1019.7
20260502022545 35 189 0.0 0.0 0.00 0.00 0.00 81 1019.8
20260502022042 35 190 0.0 0.0 0.00 0.00 0.00 80 1019.9
20260502021539 36 183 0.0 0.0 0.00 0.00 0.00 79 1019.8
20260502021036 36 198 0.0 0.0 0.00 0.00 0.00 78 1019.8
20260502020534 36 198 0.0 0.0 0.00 0.00 0.00 78 1019.8
20260502020031 36 198 0.0 0.0 0.00 0.00 0.00 77 1019.7
20260502015529 37 199 0.0 0.0 0.00 0.00 0.00 76 1019.7
20260502015025 37 198 0.0 0.0 0.00 0.00 0.00 76 1019.6
20260502014522 37 197 0.0 0.0 0.00 0.00 0.00 75 1019.5
20260502014019 37 198 0.0 0.0 0.00 0.00 0.00 75 1019.5
20260502013514 37 198 1.0 1.0 0.00 0.00 0.00 75 1019.3
20260502013011 37 195 0.0 0.0 0.00 0.00 0.00 74 1019.5
20260502012508 37 196 0.0 0.0 0.00 0.00 0.00 74 1019.6
20260502012006 37 185 1.0 2.0 0.00 0.00 0.00 73 1019.2
20260502011502 37 214 2.0 2.0 0.00 0.00 0.00 72 1019.6
20260502010959 37 175 0.0 0.0 0.00 0.00 0.00 72 1019.3
20260502010455 37 175 0.0 0.0 0.00 0.00 0.00 72 1019.5
20260502005951 37 145 0.0 0.0 0.00 0.00 0.00 71 1019.2
20260502005450 38 205 0.0 0.0 0.00 0.00 0.00 70 1019.5
20260502004948 38 106 1.0 1.0 0.00 0.00 0.00 70 1019.0
20260502004443 38 106 1.0 1.0 0.00 0.00 0.00 70 1019.0
20260502003940 38 219 0.0 0.0 0.00 0.00 0.00 69 1019.1
20260502003438 38 174 0.0 1.0 0.00 0.00 0.00 68 1019.2
20260502002933 38 174 0.0 0.0 0.00 0.00 0.00 69 1019.2
20260502002431 39 182 1.0 1.0 0.00 0.00 0.00 66 1019.2
20260502001928 39 131 0.0 0.0 0.00 0.00 0.00 67 1019.3
20260502001426 39 198 0.0 1.0 0.00 0.00 0.00 64 1019.0
20260502000923 39 203 1.0 1.0 0.00 0.00 0.00 64 1019.1
20260502000424 39 223 1.0 1.0 0.00 0.00 0.00 65 1019.2
20260501235917 39 179 0.0 0.0 0.00 0.00 0.00 64 1019.1
20260501235413 39 170 0.0 0.0 0.00 0.00 0.00 64 1019.0
20260501234908 39 192 0.0 0.0 0.00 0.00 0.00 64 1019.0
20260501234406 40 179 0.0 0.0 0.00 0.00 0.00 62 1018.9
20260501233904 40 184 0.0 0.0 0.00 0.00 0.00 62 1019.0